Hourly Data Report for October 26, 2016

All times are specified in Local Standard Time (LST). Add 1 hour to adjust for Daylight Saving Time where and when it is observed.

WINNIPEG A CS
MANITOBA

49°55'00.000" N
97°14'58.000" W
238.70 m
502S001
71849
XWG

Download Data

Hourly Data (October 2016)
Hourly Data Report for October 26, 2016
Temp Definition
°C
Dew Point Temp Definition
°C
Rel Hum Definition
%
Wind Dir Definition
10's deg

Wind Spd Definition
km/h
Visibility Definition
km
Stn Press Definition
kPa
Hmdx Definition


Wind Chill Definition


Weather Definition


TIME
00:00 5.2 2.1 81 13 20   99.41     LegendNANA
01:00 5.0 1.9 81 13 20   99.40     LegendNANA
02:00 5.1 1.6 78 13 18   99.39     LegendNANA
03:00 4.6 1.4 80 12 17   99.38     LegendNANA
04:00 4.8 1.1 77 13 21   99.34     LegendNANA
05:00 4.8 0.9 76 13 23   99.29     LegendNANA
06:00 4.4 1.5 81 14 22   99.28     LegendNANA
07:00 3.6 2.2 90 14 22   99.26     LegendNANA
08:00 3.5 2.6 94 14 24   99.25     LegendNANA
09:00 3.9 3.1 94 14 27   99.22     LegendNANA
10:00 4.1 3.4 95 15 24   99.19     LegendNANA
11:00 4.8 4.1 95 15 22   99.13     LegendNANA
12:00 5.4 4.2 92 16 23   99.09     LegendNANA
13:00 5.6 4.7 93 17 25   99.04     LegendNANA
14:00 5.9 5.0 94 17 26   98.97     LegendNANA
15:00 6.2 5.5 96 17 26   98.89     LegendNANA
16:00 6.3 5.5 95 18 27   98.86     LegendNANA
17:00 6.6 5.7 94 19 27   98.87     LegendNANA
18:00 6.6 6.0 96 19 25   98.89     LegendNANA
19:00 6.7 6.2 96 18 25   98.80     LegendNANA
20:00 7.0 6.4 96 18 26   98.77     LegendNANA
21:00 7.3 6.5 95 19 23   98.76     LegendNANA
22:00 7.4 6.6 94 20 20   98.74     LegendNANA
23:00 7.6 6.7 94 21 17   98.75     LegendNANA

Notes on Data Quality.

Legend

  • E = Estimated
  • M = Missing
  • NA = Not Available
  • ‡ = Partner data that is not subject to review by the National Climate Archives
Date modified: